Date String (YYYY-MM-DD hh:mm:ss) UTC,Instrument flags,Ambient pressure (hPa),Sample flow (lpm),Bypass flow (lpm),Sample temperature (°C),Ambient temperature (°C),ASC tube jacket temperature (°C),LED temperature (°C),Box temperature (°C),Sample RH (%),Span deviation,Mass concentration (μg/m³),Mass concentration (μg/m³),Mass concentration (μg/m³)
DateTimeUTC,F1_M11,P_M11,Q1_M11,Q2_M11,T1_M11,T2_M11,T3_M11,T4_M11,T5_M11,U1_M11,ZSPAN_M11,X0_M11,X2_M11,X1_M11
2021-09-18 14:00:00,,0831.2,5.01,0.00,27.9,27.2,00.0,36.9,29.8,23.1,0002.5,0028.94,0009.40,0007.44
2021-09-18 14:01:00,,0831.2,5.00,0.00,27.9,27.3,00.0,36.9,29.8,22.7,0002.7,0028.92,0009.45,0007.46
2021-09-18 14:02:00,,0831.2,4.99,0.00,27.9,27.3,00.0,36.9,29.8,23.0,0002.6,0028.14,0009.47,0007.49
2021-09-18 14:03:00,,0831.2,5.01,0.00,28.0,27.3,00.0,36.9,29.8,23.4,0002.5,0026.74,0009.46,0007.52
2021-09-18 14:04:00,,0831.2,5.00,0.00,28.0,27.3,00.0,37.0,29.9,23.2,0001.9,0025.98,0009.48,0007.54
2021-09-18 14:05:00,,0831.3,5.01,0.00,28.0,27.3,00.0,37.0,29.9,23.1,0001.4,0025.89,0009.51,0007.55
2021-09-18 14:06:00,,0831.3,4.99,0.00,28.0,27.3,00.0,37.0,29.9,22.8,0001.1,0025.24,0009.47,0007.57
2021-09-18 14:07:00,,0831.3,5.02,0.00,28.0,27.3,00.0,37.0,29.9,23.1,0001.0,0025.36,0009.44,0007.59
2021-09-18 14:08:00,,0831.2,5.00,0.00,28.0,27.3,00.0,37.0,29.9,23.0,0000.7,0025.00,0009.47,0007.59
2021-09-18 14:09:00,,0831.2,5.00,0.00,28.1,27.4,00.0,37.0,29.9,23.1,0000.7,0023.52,0009.50,0007.61
2021-09-18 14:10:00,,0831.3,4.99,0.00,28.1,27.4,00.0,37.1,29.9,22.9,0000.5,0022.15,0009.55,0007.66
2021-09-18 14:11:00,,0831.2,5.01,0.00,28.1,27.4,00.0,37.1,30.0,23.0,0000.4,0021.09,0009.57,0007.69
2021-09-18 14:12:00,,0831.2,5.01,0.00,28.1,27.4,00.0,37.1,30.0,23.1,0000.2,0020.27,0009.58,0007.72
2021-09-18 14:13:00,,0831.2,5.00,0.00,28.1,27.4,00.0,37.1,30.0,23.1,0000.2,0019.89,0009.62,0007.73
2021-09-18 14:14:00,,0831.2,5.01,0.00,28.2,27.5,00.0,37.1,30.0,23.0,0000.2,0020.82,0009.59,0007.73
2021-09-18 14:15:00,,0831.2,5.00,0.00,28.2,27.5,00.0,37.1,30.0,23.4,0000.5,0020.91,0009.60,0007.73
2021-09-18 14:16:00,,0831.2,4.99,0.00,28.2,27.5,00.0,37.2,30.0,23.5,0001.1,0020.96,0009.59,0007.74
2021-09-18 14:17:00,,0831.3,5.01,0.00,28.2,27.5,00.0,37.2,30.1,23.5,0001.3,0022.19,0009.66,0007.73
2021-09-18 14:18:00,,0831.3,5.01,0.00,28.2,27.5,00.0,37.2,30.1,23.4,0001.1,0021.87,0009.67,0007.72
2021-09-18 14:19:00,,0831.2,5.00,0.00,28.3,27.6,00.0,37.2,30.1,23.1,0001.0,0021.51,0009.65,0007.69
2021-09-18 14:20:00,,0831.2,4.99,0.00,28.3,27.6,00.0,37.3,30.1,22.8,0000.8,0021.50,0009.63,0007.62
2021-09-18 14:21:00,,0831.2,5.01,0.00,28.3,27.6,00.0,37.3,30.2,22.9,0000.9,0022.29,0009.64,0007.56
2021-09-18 14:22:00,,0831.2,5.00,0.00,28.3,27.6,00.0,37.3,30.2,23.1,0001.0,0022.65,0009.62,0007.54
2021-09-18 14:23:00,,0831.2,5.00,0.00,28.4,27.7,00.0,37.3,30.2,23.0,0001.1,0022.91,0009.63,0007.51
2021-09-18 14:24:00,,0831.2,5.00,0.00,28.4,27.7,00.0,37.3,30.2,22.7,0001.2,0022.96,0009.55,0007.46
2021-09-18 14:25:00,,0831.1,5.01,0.00,28.4,27.7,00.0,37.3,30.3,22.8,0001.3,0021.93,0009.47,0007.42
2021-09-18 14:26:00,,0831.2,4.99,0.00,28.4,27.7,00.0,37.4,30.3,22.9,0001.3,0021.63,0009.44,0007.38
2021-09-18 14:27:00,,0831.2,5.02,0.00,28.5,27.8,00.0,37.4,30.3,23.0,0001.2,0020.82,0009.41,0007.34
2021-09-18 14:28:00,,0831.2,5.00,0.00,28.5,27.8,00.0,37.4,30.3,23.2,0001.6,0019.74,0009.36,0007.31
2021-09-18 14:29:00,,0831.2,5.01,0.00,28.5,27.8,00.0,37.4,30.4,23.1,0002.1,0020.09,0009.40,0007.31
2021-09-18 14:30:00,,0831.2,4.98,0.00,28.5,27.8,00.0,37.5,30.4,22.8,0002.6,0020.24,0009.44,0007.33
2021-09-18 14:31:00,,0831.2,5.00,0.00,28.5,27.8,00.0,37.5,30.4,23.1,0002.3,0021.34,0009.49,0007.37
2021-09-18 14:32:00,,0831.2,5.00,0.00,28.6,27.8,00.0,37.5,30.4,23.1,0002.2,0020.90,0009.53,0007.41
2021-09-18 14:33:00,,0831.2,5.01,0.00,28.6,27.8,00.0,37.5,30.5,22.8,0002.6,0021.22,0009.56,0007.43
2021-09-18 14:34:00,,0831.2,5.00,0.00,28.6,27.9,00.0,37.6,30.5,22.6,0002.5,0021.53,0009.56,0007.45
2021-09-18 14:35:00,,0831.1,4.99,0.00,28.6,27.9,00.0,37.6,30.5,22.6,0002.4,0022.67,0009.67,0007.53
2021-09-18 14:36:00,,0831.2,5.01,0.00,28.6,27.9,00.0,37.6,30.5,22.6,0002.5,0023.51,0009.83,0007.61
2021-09-18 14:37:00,,0831.2,4.99,0.00,28.6,27.9,00.0,37.6,30.5,22.4,0002.6,0023.83,0009.92,0007.68
2021-09-18 14:38:00,,0831.2,5.00,0.00,28.6,27.9,00.0,37.6,30.5,22.6,0002.4,0023.96,0009.98,0007.73
2021-09-18 14:39:00,,0831.2,5.00,0.00,28.7,27.9,00.0,37.7,30.5,22.9,0002.2,0024.98,0010.05,0007.76
2021-09-18 14:40:00,,0831.2,5.01,0.00,28.7,27.9,00.0,37.7,30.5,22.8,0001.8,0026.06,0010.09,0007.81
2021-09-18 14:41:00,,0831.2,5.00,0.00,28.7,28.0,00.0,37.7,30.6,22.9,0001.4,0026.37,0010.11,0007.84
2021-09-18 14:42:00,,0831.2,4.99,0.00,28.7,28.0,00.0,37.7,30.5,22.9,0001.7,0026.00,0010.12,0007.87
2021-09-18 14:43:00,,0831.2,5.01,0.00,28.7,28.0,00.0,37.7,30.6,22.9,0001.8,0026.47,0010.13,0007.89
2021-09-18 14:44:00,,0831.2,5.01,0.00,28.7,28.0,00.0,37.7,30.6,22.7,0001.6,0026.12,0010.10,0007.89
2021-09-18 14:45:00,,0831.2,5.00,0.00,28.8,28.0,00.0,37.8,30.6,22.7,0001.8,0025.31,0010.06,0007.88
2021-09-18 14:46:00,,0831.2,4.99,0.00,28.8,28.1,00.0,37.8,30.7,22.5,0001.9,0024.14,0009.98,0007.85
2021-09-18 14:47:00,,0831.2,5.00,0.00,28.8,28.1,00.0,37.8,30.7,22.3,0002.0,0023.12,0009.86,0007.80
2021-09-18 14:48:00,,0831.1,5.01,0.00,28.8,28.1,00.0,37.8,30.7,22.4,0001.7,0023.40,0009.78,0007.77
2021-09-18 14:49:00,,0831.2,5.00,0.00,28.8,28.1,00.0,37.8,30.7,22.7,0001.6,0023.36,0009.78,0007.77
2021-09-18 14:50:00,,0831.2,4.98,0.00,28.9,28.1,00.0,37.8,30.7,22.8,0001.5,0022.00,0009.76,0007.78
2021-09-18 14:51:00,,0831.2,5.00,0.00,28.9,28.2,00.0,37.9,30.7,22.8,0001.7,0020.70,0009.72,0007.77
2021-09-18 14:52:00,,0831.2,5.00,0.00,28.9,28.2,00.0,37.9,30.8,22.6,0001.9,0021.76,0009.74,0007.78
2021-09-18 14:53:00,,0831.2,5.00,0.00,28.9,28.2,00.0,37.9,30.8,22.0,0002.0,0022.16,0009.73,0007.78
2021-09-18 14:54:00,,0831.2,5.00,0.00,28.9,28.2,00.0,37.9,30.8,21.9,0002.2,0022.70,0009.69,0007.77
2021-09-18 14:55:00,,0831.2,4.99,0.00,29.0,28.3,00.0,37.9,30.8,22.6,0002.2,0024.44,0009.68,0007.77
2021-09-18 14:56:00,,0831.2,5.01,0.00,29.0,28.3,00.0,38.0,30.8,22.5,0002.3,0027.76,0009.77,0007.79
2021-09-18 14:57:00,,0831.1,5.00,0.00,29.0,28.3,00.0,38.0,30.8,22.3,0002.7,0028.96,0009.83,0007.79
2021-09-18 14:58:00,,0831.1,5.01,0.00,29.0,28.3,00.0,38.0,30.9,22.4,0002.5,0029.71,0009.85,0007.81
2021-09-18 14:59:00,,0831.1,5.01,0.00,29.0,28.3,00.0,38.0,30.9,22.9,0002.2,0030.08,0009.84,0007.80
